Location: Katowice
(50.2611°N, 19.0242°E)
Time: 02:22:21
(UTC+02:00)

A-11 Canister half - Pass Details

Date: 29 July 2019
Orbit: 1526 x 1683 km, 47.3° (Epoch: 19 August)

Event Time Altitude Azimuth Distance (km) Brightness Sun altitude
Rises 01:50:20 0° 289° (WNW) 4,869 11.7 -19.6°
Reaches altitude 10° 01:53:54 10° 280° (W) 3,857 11.0 -19.5°
Maximum altitude 02:02:10 32° 222° (SW) 2,456 9.6 -19.1°
Enters shadow 02:05:35 26° 188° (S) 2,725 9.7 -18.9°
Drops below altitude 10° 02:10:12 10° 164° (SSE) 3,740 - -18.7°
Sets 02:13:37 0° 154° (SSE) 4,702 - -18.5°
